Location: Newark
(45.9608°N, 0.8222°W)
Time: 23:46:29
(UTC+00:00)

ISS - Visible Passes

Search period start: 25 September 2020 00:00
Search period end: 05 October 2020 00:00
Orbit: 419 x 420 km, 51.6° (Epoch: 26 September)

Date Brightness Start Highest point End Pass type
(mag) Time Alt. Az. Time Alt. Az. Time Alt. Az.
25 Sep -2.3 18:56:20 10° WNW 18:59:26 33° N 19:02:08 12° NE visible
25 Sep -1.2 20:33:40 10° WNW 20:35:06 21° NW 20:35:06 21° NW visible
26 Sep -2.4 19:46:14 10° WNW 19:49:17 31° N 19:49:28 30° NNE visible
27 Sep -2.3 18:58:43 10° WNW 19:01:44 29° N 19:03:50 16° NE visible
27 Sep -0.9 20:35:42 10° WNW 20:36:47 19° NW 20:36:47 19° NW visible
28 Sep -2.7 19:48:18 10° WNW 19:51:09 39° N 19:51:09 39° N visible
29 Sep -2.6 19:00:51 10° WNW 19:04:00 34° N 19:05:30 22° ENE visible
29 Sep -0.7 20:37:40 10° WNW 20:38:28 16° WNW 20:38:28 16° WNW visible
30 Sep -2.4 18:13:22 10° WNW 18:16:26 31° N 18:19:30 10° ENE visible
30 Sep -2.9 19:50:14 10° WNW 19:52:51 49° NW 19:52:51 49° NW visible
01 Oct -3.4 19:02:48 10° WNW 19:06:07 52° NNE 19:07:15 34° ENE visible
01 Oct -0.4 20:39:48 10° WNW 20:40:13 13° W 20:40:13 13° W visible
02 Oct -3.0 18:15:22 10° WNW 18:18:36 41° NNE 18:21:42 11° E visible
02 Oct -2.4 19:52:12 10° WNW 19:54:40 38° W 19:54:40 38° W visible
03 Oct -3.7 19:04:41 10° WNW 19:08:04 77° SSW 19:09:10 39° SE visible
04 Oct -3.7 18:17:13 10° WNW 18:20:36 73° NNE 18:23:45 11° ESE visible
04 Oct -1.4 19:54:33 10° W 19:56:43 20° SW 19:56:43 20° SW visible
